Main page
METAR-TAF:

METAR-TAF

Airports :

Oil platform

Troll C, Norway

latitude: 60-53-09N, longitude: 3-36-35E, elevation: 20 m

Current weather observation

The report was made 40 minutes ago, at 21:50 UTC
Wind 14 kt from the South/Southeast
Temperature 9°C
Humidity 76%
Pressure 1040 hPa
Visibility 10 km or more

METAR: ENQC 172150Z AUTO 15014KT 9999NDV OVC018/// 09/05 Q1040 W///S4

Time: 23:30 (22:30 UTC)


TAF: missing

Weather observations and forecasts of more than 4000 airports (METAR and TAF reports).

The available stations are represented by yellow and red dots on the map.

Hover mouse over dot to see the name of the station.

Then click to see weather observations and forecasts.

To change the map : click on the green buttons with a black cross to zoom in, on the green button with a dash to zoom out, or on the green arrows for adjacent maps.


METAR-TAF: